This is the latest recevied weather packets stored in our database for station/object KF6YUA. If no packets are shown the sender has not sent any weather packets the latest 10 day(s).
| Time | Temp. | Humidity | Pressure | Rain* | Wind** | Luminosity | Snow |
|---|---|---|---|---|---|---|---|
| 1777416832 | 20.56° C | 60% | 1020.5 hPa | 0 mm | - | 365 W/m² | - |
| 1777416528 | 19.44° C | 59% | 1020.7 hPa | 0 mm | - | 505 W/m² | - |
| 1777416224 | 19.44° C | 60% | 1020.7 hPa | 0 mm | - | 451 W/m² | - |
| 1777415923 | 19.44° C | 60% | 1020.9 hPa | 0 mm | - | 491 W/m² | - |
| 1777415619 | 19.44° C | 61% | 1021 hPa | 0 mm | - | 504 W/m² | - |
| 1777415315 | 20° C | 62% | 1020.9 hPa | 0 mm | - | 509 W/m² | - |
| 1777415010 | 20.56° C | 61% | 1020.8 hPa | 0 mm | - | 405 W/m² | - |
| 1777414709 | 20.56° C | 60% | 1020.9 hPa | 0 mm | - | 574 W/m² | - |
| 1777414406 | 20° C | 61% | 1020.7 hPa | 0 mm | - | 544 W/m² | - |
| 1777414105 | 20° C | 62% | 1020.8 hPa | 0 mm | - | 399 W/m² | - |
| 1777413800 | 20.56° C | 60% | 1020.8 hPa | 0 mm | - | 542 W/m² | - |
| 1777413495 | 20° C | 62% | 1020.9 hPa | 0 mm | - | 542 W/m² | - |
| 1777413192 | 20.56° C | 58% | 1021 hPa | 0 mm | - | 563 W/m² | - |
| 1777412887 | 21.11° C | 60% | 1021.2 hPa | 0 mm | - | 582 W/m² | - |
| 1777412581 | 20.56° C | 63% | 1021.2 hPa | 0 mm | - | 554 W/m² | - |
| 1777412278 | 20.56° C | 64% | 1021.1 hPa | 0 mm | - | 618 W/m² | - |
| 1777411975 | 20.56° C | 60% | 1021.2 hPa | 0 mm | - | 609 W/m² | - |
| 1777411674 | 21.11° C | 62% | 1021.4 hPa | 0 mm | - | 581 W/m² | - |
| 1777411369 | 20.56° C | 64% | 1021.3 hPa | 0 mm | - | 634 W/m² | - |
| 1777411068 | 21.11° C | 62% | 1021.5 hPa | 0 mm | - | 634 W/m² | - |
| 1777410764 | 20.56° C | 63% | 1021.3 hPa | 0 mm | - | 629 W/m² | - |
| 1777410462 | 20.56° C | 61% | 1021.3 hPa | 0 mm | - | 646 W/m² | - |
| 1777410162 | 20° C | 60% | 1021.3 hPa | 0 mm | - | 635 W/m² | - |
| 1777409857 | 21.11° C | 61% | 1021.6 hPa | 0 mm | - | 450 W/m² | - |
| 1777409553 | 20.56° C | 63% | 1021.5 hPa | 0 mm | - | 569 W/m² | - |
* Rain latest hour (hover to see other rain measurements)
** Current wind speed in m/s (hover to see current wind gust speed)